FW8528 Weather Reports


time (UTC)temp
C
wind
direction
speed
KPH
gust
KPH
rain 1hr
cm
rain 24hr
cm
rain mn
cm
humidity
%
barometer
mb
20260504003520 28 277 1.6 3.2 0.00 0.00 0.00 34 1009.9
20260504003017 27 229 0.0 0.0 0.00 0.00 0.00 37 1009.9
20260504002514 27 228 1.6 1.6 0.00 0.00 0.00 38 1009.9
20260504002012 28 208 0.0 1.6 0.00 0.00 0.00 36 1009.9
20260504001509 28 249 1.6 3.2 0.00 0.00 0.00 34 1009.9
20260504001005 28 232 1.6 1.6 0.00 0.00 0.00 33 1009.9
20260504000503 28 228 1.6 1.6 0.00 0.00 0.00 32 1010.3
20260504000000 28 266 1.6 1.6 0.00 0.00 0.00 31 1009.9
20260503235458 28 273 1.6 1.6 0.00 0.00 0.00 31 1010.3
20260503234954 28 223 1.6 1.6 0.00 0.00 0.00 34 1010.3
20260503234452 28 177 1.6 3.2 0.00 0.00 0.00 41 1010.3
20260503233950 28 218 1.6 3.2 0.00 0.00 0.00 32 1010.3
20260503233446 28 176 4.8 4.8 0.00 0.00 0.00 34 1010.3
20260503232943 28 164 3.2 3.2 0.00 0.00 0.00 37 1010.3
20260503232439 28 244 3.2 4.8 0.00 0.00 0.00 33 1010.6
20260503231937 28 150 3.2 3.2 0.00 0.00 0.00 36 1010.6
20260503231435 28 244 1.6 1.6 0.00 0.00 0.00 36 1010.6
20260503230931 29 243 3.2 3.2 0.00 0.00 0.00 32 1010.6
20260503230428 28 253 1.6 1.6 0.00 0.00 0.00 34 1010.6
20260503225925 28 197 4.8 4.8 0.00 0.00 0.00 34 1010.6
20260503225422 29 213 4.8 8.0 0.00 0.00 0.00 35 1010.6
20260503224918 30 216 3.2 3.2 0.00 0.00 0.00 32 1010.9
20260503224415 29 230 0.0 0.0 0.00 0.00 0.00 32 1010.9
20260503223912 29 142 3.2 4.8 0.00 0.00 0.00 35 1011.3
20260503223410 29 215 3.2 3.2 0.00 0.00 0.00 32 1011.3
20260503222910 29 216 6.4 8.0 0.00 0.00 0.00 30 1011.3
20260503222409 29 233 4.8 8.0 0.00 0.00 0.00 35 1011.3
20260503221907 28 258 6.4 8.0 0.00 0.00 0.00 31 1011.3
20260503221406 28 274 4.8 4.8 0.00 0.00 0.00 32 1010.9
20260503220901 28 219 1.6 1.6 0.00 0.00 0.00 32 1011.3
20260503220358 29 235 3.2 4.8 0.00 0.00 0.00 33 1011.3
20260503215855 28 200 3.2 3.2 0.00 0.00 0.00 35 1011.3
20260503215352 27 232 1.6 1.6 0.00 0.00 0.00 36 1011.3
20260503214849 28 286 0.0 1.6 0.00 0.00 0.00 41 1011.7
20260503214347 29 97 3.2 4.8 0.00 0.00 0.00 33 1011.3
20260503213844 28 344 4.8 4.8 0.00 0.00 0.00 34 1011.7
20260503213342 28 217 1.6 1.6 0.00 0.00 0.00 34 1011.7
20260503212838 28 252 3.2 3.2 0.00 0.00 0.00 35 1011.7
20260503212336 27 348 1.6 3.2 0.00 0.00 0.00 37 1011.7
20260503211833 27 208 4.8 4.8 0.00 0.00 0.00 35 1012.0
20260503211330 27 168 6.4 8.0 0.00 0.00 0.00 35 1012.0
20260503210825 27 239 4.8 8.0 0.00 0.00 0.00 34 1012.0
20260503210323 27 236 4.8 4.8 0.00 0.00 0.00 36 1011.7
20260503205818 28 270 1.6 3.2 0.00 0.00 0.00 36 1012.0
20260503205314 27 257 3.2 3.2 0.00 0.00 0.00 36 1012.0
20260503204811 27 294 1.6 1.6 0.00 0.00 0.00 38 1012.0
20260503204309 27 300 0.0 1.6 0.00 0.00 0.00 39 1012.4
20260503203806 27 200 3.2 4.8 0.00 0.00 0.00 38 1012.4
20260503203303 27 271 1.6 3.2 0.00 0.00 0.00 38 1012.4
20260503202800 27 228 8.0 9.7 0.00 0.00 0.00 37 1012.4
20260503202258 26 299 1.6 1.6 0.00 0.00 0.00 45 1012.4
20260503201755 26 125 4.8 4.8 0.00 0.00 0.00 43 1012.4
20260503201252 26 118 4.8 8.0 0.00 0.00 0.00 42 1012.4
20260503200750 26 171 1.6 1.6 0.00 0.00 0.00 43 1012.7
20260503200246 25 133 1.6 3.2 0.00 0.00 0.00 41 1012.7
20260503195743 26 153 6.4 8.0 0.00 0.00 0.00 43 1012.7
20260503195239 26 188 1.6 3.2 0.00 0.00 0.00 45 1012.7
20260503194737 26 154 4.8 4.8 0.00 0.00 0.00 42 1012.7
20260503194233 25 35 1.6 1.6 0.00 0.00 0.00 44 1013.1
20260503193729 25 149 3.2 3.2 0.00 0.00 0.00 46 1012.7
20260503193225 25 138 1.6 1.6 0.00 0.00 0.00 43 1012.7
20260503192721 25 168 6.4 8.0 0.00 0.00 0.00 45 1013.1
20260503192216 25 227 0.0 0.0 0.00 0.00 0.00 48 1013.1
20260503191713 24 266 0.0 0.0 0.00 0.00 0.00 46 1013.1
20260503191211 24 264 1.6 1.6 0.00 0.00 0.00 47 1013.1
20260503190707 23 112 4.8 4.8 0.00 0.00 0.00 45 1013.1
20260503190204 25 121 3.2 3.2 0.00 0.00 0.00 43 1013.1
20260503185701 24 298 1.6 3.2 0.00 0.00 0.00 46 1013.4
20260503185156 23 278 1.6 3.2 0.00 0.00 0.00 45 1013.4
20260503184651 24 288 1.6 3.2 0.00 0.00 0.00 45 1013.1
20260503184148 25 159 1.6 3.2 0.00 0.00 0.00 45 1013.4
20260503183644 24 320 3.2 3.2 0.00 0.00 0.00 47 1013.4
20260503183142 24 27 0.0 0.0 0.00 0.00 0.00 46 1013.4
20260503182640 23 158 1.6 1.6 0.00 0.00 0.00 46 1013.4
20260503182139 22 230 0.0 0.0 0.00 0.00 0.00 46 1013.4
20260503181635 22 241 3.2 4.8 0.00 0.00 0.00 47 1013.4
20260503181132 22 289 1.6 3.2 0.00 0.00 0.00 49 1013.4
20260503180628 22 139 0.0 1.6 0.00 0.00 0.00 49 1013.4
20260503180126 21 297 0.0 1.6 0.00 0.00 0.00 53 1013.4
20260503175623 21 320 1.6 1.6 0.00 0.00 0.00 53 1013.7
20260503175120 21 179 3.2 3.2 0.00 0.00 0.00 57 1013.4
20260503174617 21 190 1.6 1.6 0.00 0.00 0.00 55 1013.4
20260503174114 21 266 0.0 0.0 0.00 0.00 0.00 57 1013.7
20260503173609 20 218 1.6 1.6 0.00 0.00 0.00 57 1013.4
20260503173106 20 211 1.6 1.6 0.00 0.00 0.00 57 1013.7
20260503172603 20 297 0.0 1.6 0.00 0.00 0.00 57 1013.7
20260503172100 20 114 3.2 3.2 0.00 0.00 0.00 57 1013.7
20260503171556 20 218 1.6 1.6 0.00 0.00 0.00 60 1013.7
20260503171054 20 225 0.0 0.0 0.00 0.00 0.00 59 1013.7
20260503170550 20 146 3.2 3.2 0.00 0.00 0.00 63 1013.7
20260503150942 12 263 0.0 0.0 0.00 0.00 0.00 91 1014.1
20260503150439 12 263 0.0 0.0 0.00 0.00 0.00 93 1013.7
20260503131332 10 265 0.0 0.0 0.00 0.00 0.00 99 1013.7
20260503130829 9 265 0.0 0.0 0.00 0.00 0.00 99 1013.7
20260503130327 9 265 0.0 0.0 0.00 0.00 0.00 99 1013.7
20260503110720 10 266 0.0 0.0 0.00 0.00 0.00 95 1014.1
20260503110218 10 266 0.0 0.0 0.00 0.00 0.00 95 1014.1
20260503100144 11 266 0.0 0.0 0.00 0.00 0.00 93 1014.1
20260503081533 11 266 0.0 0.0 0.00 0.00 0.00 92 1014.8
20260503081030 11 266 0.0 0.0 0.00 0.00 0.00 91 1014.4
20260503080526 11 266 0.0 0.0 0.00 0.00 0.00 91 1014.4
20260503072500 11 266 0.0 0.0 0.00 0.00 0.00 92 1014.4
20260503071957 12 266 0.0 0.0 0.00 0.00 0.00 92 1014.4
20260503071454 12 266 0.0 0.0 0.00 0.00 0.00 94 1014.4
20260503070950 12 266 0.0 0.0 0.00 0.00 0.00 92 1014.4
20260503070447 12 266 0.0 0.0 0.00 0.00 0.00 90 1014.4
20260503054906 13 266 0.0 0.0 0.00 0.00 0.00 99 1014.4
20260503054402 13 266 0.0 0.0 0.00 0.00 0.00 98 1014.1
20260503053900 13 266 0.0 0.0 0.00 0.00 0.00 98 1014.4
20260503053358 13 266 0.0 0.0 0.00 0.00 0.00 98 1014.1
20260503052854 13 266 0.0 0.0 0.00 0.00 0.00 98 1014.1
20260503052351 13 266 0.0 0.0 0.00 0.00 0.00 97 1014.4
20260503051847 13 266 0.0 0.0 0.00 0.00 0.00 96 1014.1
20260503051344 13 266 0.0 0.0 0.00 0.00 0.00 95 1014.1
20260503050841 13 266 0.0 0.0 0.00 0.00 0.00 96 1014.1
20260503050337 13 266 0.0 0.0 0.00 0.00 0.00 96 1014.1
20260503045834 13 266 0.0 0.0 0.00 0.00 0.00 96 1014.1
20260503045332 13 266 0.0 0.0 0.00 0.00 0.00 95 1014.1
20260503044828 14 266 0.0 0.0 0.00 0.00 0.00 95 1014.1
20260503044325 14 266 0.0 0.0 0.00 0.00 0.00 94 1014.1
20260503043822 14 266 0.0 0.0 0.00 0.00 0.00 91 1014.1
20260503043319 15 266 0.0 0.0 0.00 0.00 0.00 91 1014.1
20260503042815 15 266 0.0 0.0 0.00 0.00 0.00 85 1013.7
20260503042313 15 266 0.0 0.0 0.00 0.00 0.00 89 1014.1
20260503041808 15 266 0.0 0.0 0.00 0.00 0.00 91 1014.1
20260503041306 15 266 0.0 0.0 0.00 0.00 0.00 88 1013.7
20260503040804 15 266 0.0 0.0 0.00 0.00 0.00 92 1013.7
20260503040301 15 266 0.0 0.0 0.00 0.00 0.00 91 1014.1
20260503035757 15 266 0.0 0.0 0.00 0.00 0.00 88 1013.7
20260503035255 15 265 0.0 0.0 0.00 0.00 0.00 90 1013.7
20260503034752 16 266 0.0 0.0 0.00 0.00 0.00 88 1013.7
20260503034249 16 266 0.0 0.0 0.00 0.00 0.00 78 1013.4
20260503033747 16 266 0.0 0.0 0.00 0.00 0.00 87 1013.4
20260503033244 16 266 0.0 0.0 0.00 0.00 0.00 84 1013.4
20260503032742 16 265 0.0 0.0 0.00 0.00 0.00 84 1013.4
20260503032240 17 265 0.0 0.0 0.00 0.00 0.00 87 1013.4
20260503031737 17 266 0.0 0.0 0.00 0.00 0.00 79 1013.4
20260503031235 17 265 0.0 0.0 0.00 0.00 0.00 86 1013.1
20260503030731 17 265 0.0 0.0 0.00 0.00 0.00 81 1013.1
20260503030228 17 266 0.0 0.0 0.00 0.00 0.00 76 1013.1
20260503025725 18 266 0.0 0.0 0.00 0.00 0.00 80 1013.1
20260503025222 18 266 0.0 0.0 0.00 0.00 0.00 75 1013.1
20260503024719 18 265 0.0 0.0 0.00 0.00 0.00 79 1013.1
20260503024216 19 265 0.0 0.0 0.00 0.00 0.00 67 1012.7
20260503023713 19 266 0.0 0.0 0.00 0.00 0.00 66 1012.7
20260503023210 20 265 0.0 0.0 0.00 0.00 0.00 73 1012.7
20260503022706 20 264 0.0 0.0 0.00 0.00 0.00 66 1013.1
20260503022205 20 257 0.0 1.6 0.00 0.00 0.00 64 1012.7
20260503021703 20 260 0.0 0.0 0.00 0.00 0.00 61 1012.7
20260503021159 21 257 0.0 0.0 0.00 0.00 0.00 64 1012.7
20260503020656 21 270 0.0 0.0 0.00 0.00 0.00 58 1012.7
20260503020154 21 274 1.6 1.6 0.00 0.00 0.00 56 1012.7
20260503015650 22 252 0.0 1.6 0.00 0.00 0.00 55 1012.7
20260503015147 22 343 0.0 0.0 0.00 0.00 0.00 49 1012.7
20260503014643 23 256 1.6 1.6 0.00 0.00 0.00 49 1012.7
20260503014141 23 298 1.6 1.6 0.00 0.00 0.00 46 1013.1
20260503013638 23 231 1.6 1.6 0.00 0.00 0.00 50 1012.7
20260503013136 23 293 3.2 3.2 0.00 0.00 0.00 45 1012.7
20260503012633 23 222 1.6 1.6 0.00 0.00 0.00 48 1013.1
20260503012130 24 136 3.2 3.2 0.00 0.00 0.00 43 1012.7
20260503011626 25 222 1.6 1.6 0.00 0.00 0.00 44 1012.7
20260503011124 25 305 4.8 8.0 0.00 0.00 0.00 40 1012.7
20260503010620 25 245 0.0 0.0 0.00 0.00 0.00 45 1012.7
20260503010117 25 271 3.2 3.2 0.00 0.00 0.00 41 1012.7
20260503005614 25 272 1.6 1.6 0.00 0.00 0.00 47 1013.1
20260503005111 25 228 1.6 1.6 0.00 0.00 0.00 44 1012.7
20260503004607 25 245 1.6 1.6 0.00 0.00 0.00 43 1012.7
20260503004106 25 211 0.0 1.6 0.00 0.00 0.00 42 1012.7